Hayward, WI

2:55 AM CST on December 07, 2016 (GMT -0600)
Sawyer County

Weather History for KHYR - November, 2013

Change the Weather History Date:

Sunday, November 10, 2013

  Actual Average Record
Temperature  
Mean Temperature 36 °F -  
Max Temperature 42 °F 36 °F 64 °F (2010)
Min Temperature 30 °F 28 °F 14 °F (1997)
Degree Days  
Heating Degree Days 29    
Moisture  
Dew Point 26 °F    
Average Humidity 68    
Maximum Humidity 87    
Minimum Humidity 49    
Precipitation  
Precipitation 0.00 in - - ()
Sea Level Pressure  
Sea Level Pressure 30.20 in    
Wind  
Wind Speed 5 mph (WSW)    
Max Wind Speed 9 mph    
Max Gust Speed 16 mph    
Visibility 10 miles    
Events Snow    
Averages and records for this station are not official NWS values.
T = Trace of Precipitation, MM = Missing Value Source: NWS Daily Summary

Daily Weather History Graph

Daily Weather History Graph

Search for Another Location

Airport or City:

Trip Planner

Search our weather history database for the weather conditions in past years. The results will help you decide how hot, cold, wet, or windy it might be!

Date:

Astronomy

Nov. 10, 2013 Rise Set
Actual Time 6:59 AM CST 4:39 PM CST
Civil Twilight 6:27 AM CST 5:11 PM CST
Nautical Twilight 5:51 AM CST 5:47 PM CST
Astronomical Twilight 5:16 AM CST 6:22 PM CST
Moon 1:05 PM CST (11/10) No Moon Set
Length of Visible Light 10h 43m
Length of Day
9h 39m
First Quarter, 56% of the Moon is Illuminated
Nov 10
First Quarter
Nov 17
Full
Nov 25
Last Quarter
Dec 2
New
Dec 9
First Quarter

Hourly Weather History & Observations

Time (CST) Temp. Windchill Dew Point Humidity Pressure Visibility Wind Dir Wind Speed Gust Speed Precip Events Conditions
12:34 AM 35.6 °F 31.7 °F 28.4 °F 75% 30.08 in 10.0 mi Variable 4.6 mph - N/A   Overcast
12:53 AM 36.0 °F 30.3 °F 28.0 °F 73% 30.13 in 10.0 mi Variable 6.9 mph 16.1 mph N/A   Overcast
1:53 AM 36.0 °F 29.6 °F 27.0 °F 70% 30.17 in 10.0 mi WNW 8.1 mph - N/A   Overcast
2:24 AM 35.6 °F 30.7 °F 28.4 °F 75% 30.13 in 10.0 mi Variable 5.8 mph - N/A   Overcast
2:53 AM 35.1 °F 28.6 °F 28.0 °F 76% 30.19 in 10.0 mi WNW 8.1 mph - N/A   Overcast
3:53 AM 35.1 °F 31.0 °F 27.0 °F 72% 30.22 in 10.0 mi Variable 4.6 mph - N/A   Overcast
4:53 AM 35.1 °F 31.0 °F 26.1 °F 70% 30.24 in 10.0 mi Variable 4.6 mph - N/A   Overcast
5:53 AM 32.0 °F 28.7 °F 25.0 °F 75% 30.27 in 10.0 mi West 3.5 mph - N/A   Clear
6:51 AM 30.2 °F - 26.6 °F 86% 30.25 in 10.0 mi Calm Calm - N/A   Overcast
6:53 AM 30.9 °F - 26.1 °F 82% 30.30 in 10.0 mi Calm Calm - N/A   Overcast
7:53 AM 30.9 °F - 27.0 °F 85% 30.28 in 10.0 mi Calm Calm - N/A   Mostly Cloudy
8:10 AM 32.0 °F - 28.4 °F 87% 30.23 in 10.0 mi Calm Calm - N/A   Scattered Clouds
8:53 AM 35.1 °F 29.3 °F 26.1 °F 70% 30.29 in 10.0 mi Variable 6.9 mph - N/A   Mostly Cloudy
9:53 AM 35.1 °F 30.1 °F 26.1 °F 70% 30.31 in 10.0 mi Variable 5.8 mph - N/A   Overcast
10:51 AM 37.4 °F 33.8 °F 24.8 °F 60% 30.25 in 10.0 mi Variable 4.6 mph - N/A   Scattered Clouds
10:53 AM 37.9 °F 35.5 °F 25.0 °F 60% 30.30 in 10.0 mi Variable 3.5 mph - N/A   Scattered Clouds
11:53 AM 39.9 °F 35.8 °F 25.0 °F 55% 30.25 in 10.0 mi Variable 5.8 mph - N/A   Clear
12:53 PM 42.1 °F 37.1 °F 24.1 °F 49% 30.22 in 10.0 mi West 8.1 mph - N/A   Clear
1:53 PM 42.1 °F 37.7 °F 24.1 °F 49% 30.20 in 10.0 mi Variable 6.9 mph 16.1 mph N/A   Clear
2:53 PM 41.0 °F 35.2 °F 23.0 °F 49% 30.19 in 10.0 mi SW 9.2 mph 16.1 mph N/A   Clear
3:53 PM 39.9 °F 35.8 °F 24.1 °F 53% 30.17 in 10.0 mi SW 5.8 mph - N/A   Clear
4:53 PM 37.9 °F 33.5 °F 24.1 °F 57% 30.16 in 10.0 mi Variable 5.8 mph - N/A   Clear
5:53 PM 37.9 °F 33.5 °F 25.0 °F 60% 30.15 in 10.0 mi SW 5.8 mph - N/A   Overcast
6:53 PM 37.9 °F 33.5 °F 26.1 °F 62% 30.14 in 10.0 mi SW 5.8 mph - N/A   Overcast
7:53 PM 37.9 °F 33.5 °F 25.0 °F 60% 30.13 in 10.0 mi WSW 5.8 mph - N/A   Overcast
8:53 PM 37.0 °F 33.3 °F 25.0 °F 62% 30.12 in 10.0 mi Variable 4.6 mph - N/A   Overcast
9:53 PM 36.0 °F 33.3 °F 26.1 °F 67% 30.12 in 7.0 mi WSW 3.5 mph - 0.00 in Snow Light Snow
10:53 PM 34.0 °F 28.8 °F 28.0 °F 79% 30.11 in 9.0 mi Variable 5.8 mph - 0.00 in   Overcast
11:53 PM 34.0 °F 31.0 °F 28.0 °F 79% 30.10 in 10.0 mi Variable 3.5 mph - N/A   Overcast